Location: Risskov
(56.1972°N, 10.2480°E)
Time: 13:26:40
(UTC+00:00)

Cosmos 1842 Rocket - Pass Details

Date: 05 July 2020
Orbit: 604 x 635 km, 82.5° (Epoch: 06 August)

Event Time Altitude Azimuth Distance (km) Brightness Sun altitude
Rises 21:37:49 0° 344° (NNW) 2,896 9.2 -8.0°
Reaches altitude 10° 21:40:06 10° 339° (NNW) 1,982 7.9 -8.1°
Maximum altitude 21:44:20 50° 265° (W) 784 4.2 -8.4°
Drops below altitude 10° 21:48:30 10° 190° (S) 1,955 5.6 -8.6°
Enters shadow 21:49:03 - 189° (S) 2,167 5.8 -8.6°
